DELTA 1 DEB, 7048

Orbit data source: Space-Track

DELTA 1 DEB, 7048 is space debris in LEO originally from a launch on Tue, 06 Nov 1973 UTC launched from the Air Force Western Test Range (AFWTR). Debris objects in space refer to the collection of defunct objects orbiting the Earth. Examples of debris include non-operational satellites, rocket bodies, and fragments generated from explosions, collisions, or faulty payload assembly.

Loading next visibility...
Identifier
7048, 1973-086AQ
Orbit
LEO
Country
Flag of USUS
Related business
Manufacturer
Unknown
Mission
Spacecraft
Bus & Motor
Unknown
Mass
Unknown
Launch date (UTC)
1973-11-06 (53 years ago)
Launch vehicle
Unknown
Launch site
Air Force Western Test Range (AFWTR)
Object type
Payload
Rocket body
Debris
Shape & HBR
Unknown shape, 0.2 m
Radar Cross Section
Medium (>0.1 m² and <1 m²)

Expand to show TLE details & history
Last TLE update: 2 days ago

TLE from 2 days ago
0 DELTA 1 DEB
1 07048U 73086AQ  26262.41081528  .00000001  00000-0  57033-3 0  9992
2 07048 101.6015  81.0753 0486503 202.2885 186.8392 11.50711632214452
Epoch: 2026-09-19T09:51Z
TLE epoch observation values (Epoch: 2026-09-19T09:51:34.440Z)
Latitude
27.90323°
Longitude
-71.35138°
Altitude
2,313.047 km
Speed
6.61 km/s
True Right ascension
04h 59m 26s
True Declination
27° 47' 12"
Sunlit
Object was in daylight at epoch
Visualization orbit readout
Latitude
Unknown
Longitude
Unknown
Altitude
Unknown
Speed
Unknown
Apparent Right ascension
Unknown
Apparent Declination
Unknown
Sunlit
N/A
Visualization observer readout
Local Sidereal Time
16:16:53
Azimuth
Unknown
Elevation
Unknown
Doppler factor
Unknown
Orbital elements
Apogee altitude
2,310.114 km
Perigee altitude
1,503.961 km
Semi-major axis
8,285.175 km
Eccentricity
0.04865
Inclination
101.6015°
RAAN
81.0753°
Arg. of periapsis
202.2885°
True anomaly
186.21321°
Mean anomaly
186.8392°
Eccentric anomaly
186.52256°
Mean motion
2.878 °/min
Orbital period
125.09 mins
BSTAR
0.00057033
Loading maneuver chart data...
Computing Atmospheric mass density...
Loading historical data...
Loading historical data...
Loading historical data...
Loading historical data...
Loading historical data...
Loading historical data...
Loading historical data...

Documentation

Showing up to 5 results
|